Weather History for Owosso, MI

Change the Weather History Date:

Saturday, November 16, 2013

  Actual Average (KFNT) Record (KFNT)
Temperature  
Mean Temperature 48 °F 39 °F  
Max Temperature 57 °F 47 °F 68 °F (1953)
Min Temperature 38 °F 31 °F 7 °F (1933)
Degree Days  
Heating Degree Days 18 26  
Month to date heating degree days 374  
Since 1 July heating degree days 1070  
Cooling Degree Days 0 0  
Month to date cooling degree days 0  
Year to date cooling degree days 531  
Moisture  
Dew Point 42 °F    
Average Humidity 77    
Maximum Humidity 93    
Minimum Humidity 61    
Precipitation  
Precipitation 0.00 in 0.09 in 0.89 in (1988)
Month to date precipitation 1.46  
Year to date precipitation 28.24  
Snow  
Snow 0.00 in 0.10 in 4.80 in (1989)
Month to date snowfall 0.6  
Since 1 July snowfall 1.0  
Since 1 September snowfall 1.0  
Snow Depth -    
Sea Level Pressure  
Sea Level Pressure 29.93 in    
Wind  
Wind Speed 8 mph (SSE)    
Max Wind Speed 18 mph    
Max Gust Speed 26 mph    
Visibility 10 miles    
Events Rain    
T = Trace of Precipitation, MM = Missing Value Source: NWS Daily Summary

Daily Weather History Graph

Daily Weather History Graph

Search for Another Location

Airport:

Trip Planner

Search our weather history database for the weather conditions in past years. The results will help you decide how hot, cold, wet, or windy it might be!

Date:

Astronomy

Nov. 16, 2013 Rise Set
Actual Time 7:30 AM EST 5:11 PM EST
Civil Twilight 6:59 AM EST 5:42 PM EST
Nautical Twilight 6:25 AM EST 6:16 PM EST
Astronomical Twilight 5:51 AM EST 6:50 PM EST
Moon 4:47 PM EST (11/16) 6:24 AM EST (11/16)
Length of Visible Light 10h 42m
Length of Day
9h 41m
Waxing Gibbous, 99% of the Moon is Illuminated
Nov 16
Waxing Gibbous
Nov 17
Full
Nov 25
Last Quarter
Dec 2
New
Dec 9
First Quarter

Hourly Weather History & Observations

Time (EST) Temp. Windchill Dew Point Humidity Pressure Visibility Wind Dir Wind Speed Gust Speed Precip Events Conditions
12:15 AM 40.6 °F 37.5 °F 28.4 °F 62% 30.03 in 10.0 mi South 4.6 mph - N/A   Clear
12:35 AM 41.0 °F 39.0 °F 28.4 °F 61% 30.03 in 10.0 mi South 3.5 mph - N/A   Clear
12:55 AM 40.8 °F 37.8 °F 28.4 °F 61% 30.03 in 10.0 mi South 4.6 mph - N/A   Clear
1:15 AM 40.3 °F 37.1 °F 28.6 °F 63% 30.03 in 10.0 mi South 4.6 mph - N/A   Clear
1:35 AM 40.3 °F 38.2 °F 28.4 °F 63% 30.02 in 10.0 mi SSE 3.5 mph - N/A   Clear
1:55 AM 40.3 °F 37.1 °F 28.4 °F 63% 30.02 in 10.0 mi SSE 4.6 mph - N/A   Clear
2:15 AM 40.1 °F 38.0 °F 28.8 °F 64% 30.02 in 10.0 mi SSE 3.5 mph - N/A   Clear
2:35 AM 39.7 °F 37.6 °F 28.4 °F 64% 30.02 in 10.0 mi SSE 3.5 mph - N/A   Clear
2:54 AM 39.4 °F 37.2 °F 28.9 °F 66% 30.02 in 10.0 mi SSE 3.5 mph - N/A   Clear
3:15 AM 39.6 °F 36.3 °F 29.1 °F 66% 30.02 in 10.0 mi SSE 4.6 mph - N/A   Clear
3:35 AM 39.2 °F 35.9 °F 29.1 °F 67% 30.03 in 10.0 mi South 4.6 mph - N/A   Clear
3:55 AM 39.2 °F 35.9 °F 29.3 °F 68% 30.03 in 10.0 mi SSE 4.6 mph - N/A   Clear
4:15 AM 39.0 °F 34.8 °F 29.5 °F 69% 30.04 in 10.0 mi South 5.8 mph - N/A   Clear
4:35 AM 39.2 °F 33.6 °F 30.2 °F 70% 30.04 in 10.0 mi South 8.1 mph - N/A   Clear
4:55 AM 39.2 °F 35.0 °F 30.6 °F 71% 30.05 in 10.0 mi South 5.8 mph - N/A   Clear
5:15 AM 38.8 °F 35.4 °F 31.1 °F 74% 30.05 in 10.0 mi South 4.6 mph - N/A   Clear
5:35 AM 38.8 °F 35.4 °F 32.0 °F 76% 30.05 in 10.0 mi South 4.6 mph - N/A   Clear
5:55 AM 38.7 °F 35.2 °F 32.2 °F 78% 30.06 in 10.0 mi South 4.6 mph - N/A   Clear
6:15 AM 39.2 °F 35.9 °F 33.1 °F 79% 30.06 in 10.0 mi SSE 4.6 mph - N/A   Clear
6:34 AM 38.7 °F 35.2 °F 33.4 °F 81% 30.05 in 10.0 mi SSE 4.6 mph - N/A   Clear
6:55 AM 39.2 °F 35.0 °F 34.5 °F 83% 30.05 in 10.0 mi SSE 5.8 mph - N/A   Clear
7:15 AM 39.7 °F 34.3 °F 36.0 °F 86% 30.05 in 10.0 mi South 8.1 mph - N/A   Scattered Clouds
7:34 AM 40.8 °F 35.6 °F 38.5 °F 91% 30.05 in 7.0 mi South 8.1 mph - N/A   Mostly Cloudy
7:55 AM 41.9 °F 37.5 °F 40.1 °F 93% 30.05 in 4.0 mi South 6.9 mph - N/A   Overcast
8:15 AM 42.6 °F 37.8 °F 40.6 °F 93% 30.05 in 5.0 mi SSE 8.1 mph - N/A   Overcast
8:34 AM 43.0 °F 38.8 °F 40.3 °F 90% 30.04 in 7.0 mi SSE 6.9 mph - N/A   Overcast
8:55 AM 43.9 °F 38.8 °F 41.0 °F 90% 30.04 in 7.0 mi SSE 9.2 mph - N/A   Overcast
9:14 AM 44.6 °F 40.2 °F 41.9 °F 90% 30.04 in 7.0 mi SSE 8.1 mph - N/A   Overcast
9:35 AM 45.5 °F 40.3 °F 42.6 °F 90% 30.01 in 7.0 mi SE 10.4 mph - N/A   Mostly Cloudy
9:55 AM 47.1 °F - 42.8 °F 85% 30.03 in 7.0 mi South 12.7 mph 16.1 mph N/A   Mostly Cloudy
10:14 AM 47.5 °F - 42.4 °F 83% 30.02 in 7.0 mi SSE 9.2 mph 16.1 mph N/A   Overcast
10:35 AM 48.0 °F - 42.4 °F 81% 30.01 in 10.0 mi SSE 9.2 mph - N/A   Overcast
10:55 AM 48.7 °F - 43.0 °F 80% 30.01 in 10.0 mi South 8.1 mph - N/A   Overcast
11:15 AM 49.6 °F - 43.5 °F 79% 30.00 in 10.0 mi SE 10.4 mph - N/A   Overcast
11:35 AM 51.3 °F - 43.7 °F 75% 29.99 in 10.0 mi SSE 12.7 mph - N/A   Overcast
11:54 AM 51.8 °F - 43.9 °F 74% 29.97 in 10.0 mi South 11.5 mph 18.4 mph N/A   Overcast
12:15 PM 50.9 °F - 43.7 °F 76% 29.97 in 10.0 mi SSE 11.5 mph 17.3 mph N/A   Overcast
12:35 PM 52.2 °F - 44.6 °F 75% 29.96 in 10.0 mi SSE 9.2 mph 16.1 mph N/A   Overcast
12:54 PM 52.9 °F - 45.0 °F 74% 29.94 in 10.0 mi SSE 11.5 mph 21.9 mph N/A   Overcast
1:15 PM 54.7 °F - 45.5 °F 71% 29.93 in 10.0 mi SSE 9.2 mph - N/A   Mostly Cloudy
1:34 PM 54.0 °F - 45.9 °F 74% 29.91 in 10.0 mi SSE 15.0 mph 19.6 mph N/A   Mostly Cloudy
1:55 PM 55.0 °F - 46.6 °F 73% 29.90 in 10.0 mi SSE 12.7 mph 17.3 mph N/A   Mostly Cloudy
2:15 PM 55.4 °F - 46.6 °F 72% 29.89 in 10.0 mi SSE 13.8 mph 21.9 mph N/A   Mostly Cloudy
2:34 PM 55.4 °F - 46.6 °F 72% 29.89 in 10.0 mi SSE 10.4 mph 19.6 mph N/A   Mostly Cloudy
2:55 PM 55.6 °F - 46.6 °F 72% 29.87 in 10.0 mi SSE 12.7 mph 19.6 mph N/A   Mostly Cloudy
3:15 PM 55.6 °F - 46.9 °F 73% 29.86 in 10.0 mi SSE 13.8 mph 21.9 mph N/A   Clear
3:35 PM 55.4 °F - 46.9 °F 73% 29.87 in 10.0 mi SSE 11.5 mph 18.4 mph N/A   Clear
3:55 PM 55.4 °F - 47.3 °F 74% 29.87 in 10.0 mi SSE 11.5 mph 18.4 mph N/A   Scattered Clouds
4:15 PM 55.4 °F - 47.5 °F 75% 29.86 in 10.0 mi SSE 12.7 mph 20.7 mph N/A   Scattered Clouds
4:35 PM 55.6 °F - 47.8 °F 75% 29.86 in 10.0 mi SSE 10.4 mph - N/A   Scattered Clouds
4:55 PM 55.8 °F - 48.2 °F 76% 29.86 in 10.0 mi SSE 10.4 mph 16.1 mph N/A   Scattered Clouds
5:15 PM 55.9 °F - 48.4 °F 76% 29.85 in 10.0 mi SSE 11.5 mph - N/A   Scattered Clouds
5:35 PM 55.9 °F - 48.6 °F 76% 29.84 in 10.0 mi SE 12.7 mph 19.6 mph N/A   Clear
5:55 PM 56.1 °F - 49.1 °F 77% 29.84 in 10.0 mi SSE 11.5 mph - N/A   Clear
6:14 PM 56.1 °F - 49.1 °F 77% 29.82 in 10.0 mi SSE 11.5 mph 21.9 mph N/A   Clear
6:35 PM 56.3 °F - 48.9 °F 76% 29.82 in 10.0 mi SSE 16.1 mph 23.0 mph N/A   Clear
6:55 PM 56.3 °F - 48.7 °F 76% 29.82 in 10.0 mi SSE 13.8 mph 23.0 mph N/A   Mostly Cloudy
7:15 PM 56.3 °F - 48.7 °F 76% 29.81 in 10.0 mi South 12.7 mph 26.5 mph N/A   Scattered Clouds
7:35 PM 55.9 °F - 49.1 °F 78% 29.81 in 10.0 mi SSE 11.5 mph 21.9 mph N/A   Mostly Cloudy
7:55 PM 55.4 °F - 49.1 °F 79% 29.81 in 10.0 mi SSE 15.0 mph 23.0 mph N/A   Mostly Cloudy
8:15 PM 55.0 °F - 49.1 °F 80% 29.81 in 10.0 mi SSE 13.8 mph 21.9 mph N/A   Scattered Clouds
8:35 PM 55.2 °F - 49.3 °F 80% 29.80 in 10.0 mi SSE 16.1 mph 21.9 mph N/A   Mostly Cloudy
8:54 PM 55.4 °F - 49.5 °F 80% 29.80 in 10.0 mi South 11.5 mph 20.7 mph N/A   Overcast
9:15 PM 55.4 °F - 50.0 °F 82% 29.79 in 10.0 mi SSE 12.7 mph 21.9 mph N/A   Overcast
9:35 PM 55.8 °F - 50.4 °F 82% 29.79 in 10.0 mi SSE 18.4 mph 23.0 mph N/A   Overcast
9:55 PM 56.1 °F - 50.9 °F 83% 29.77 in 10.0 mi South 13.8 mph 21.9 mph N/A   Overcast
10:15 PM 56.3 °F - 51.3 °F 83% 29.75 in 10.0 mi SSE 11.5 mph 17.3 mph N/A   Overcast
10:35 PM 56.7 °F - 51.8 °F 84% 29.75 in 10.0 mi SSE 16.1 mph 23.0 mph N/A   Overcast
10:55 PM 57.2 °F - 52.2 °F 83% 29.74 in 10.0 mi South 12.7 mph 21.9 mph N/A   Overcast
11:15 PM 57.2 °F - 52.7 °F 85% 29.76 in 10.0 mi South 12.7 mph 23.0 mph N/A   Drizzle
11:35 PM 56.7 °F - 53.2 °F 88% 29.75 in 7.0 mi South 15.0 mph 20.7 mph N/A Rain Light Rain
11:55 PM 56.5 °F - 53.8 °F 91% 29.74 in 7.0 mi South 13.8 mph 20.7 mph N/A Rain Rain